Tracking 25612 objects as of 19-May-2022
HD Live streaming from Space Station
objects crossing your sky now

CUPID

Track CUPID now!
10-day predictions


NORAD ID: 49264
Int'l Code: 2021-088E
Perigee: 551.5 km
Apogee: 581.8 km
Inclination: 97.6 °
Period: 95.8 minutes
Semi major axis: 6937 km
RCS: Unknown
Launch date: September 27, 2021
Source: United States (US)
Launch site: AIR FORCE WESTERN TEST RANGE (AFWTR)
aabbcc
Your satellite tracking list
Your tracking list is empty




NASA's NSSDC Master Catalog

Two Line Element Set (TLE):
1 49264U 21088E   22139.11928430  .00004272  00000-0  32552-3 0  9994
2 49264  97.5905 207.5627 0021900 154.5139 205.7171 15.02394481 35010
Source of the keplerian elements: AFSPC